This is the latest recevied weather packets stored in our database for station/object SP9KB-13. If no packets are shown the sender has not sent any weather packets the latest 10 day(s).
| Time | Temp. | Humidity | Pressure | Rain* | Wind** | Luminosity | Snow |
|---|---|---|---|---|---|---|---|
| 1777767556 | 0° C | 97% | 1003.4 hPa | 0 mm | - | - | - |
| 1777767255 | 0° C | 97% | 1003.2 hPa | 0 mm | - | - | - |
| 1777766955 | 0.56° C | 97% | 1003.1 hPa | 0 mm | - | - | - |
| 1777766654 | 0.56° C | 97% | 1003.2 hPa | 0 mm | - | - | - |
| 1777766354 | 0.56° C | 97% | 1003.2 hPa | 0 mm | - | - | - |
| 1777766053 | 0.56° C | 97% | 1003.2 hPa | 0 mm | - | - | - |
| 1777765753 | 0.56° C | 96% | 1003.3 hPa | 0 mm | - | - | - |
| 1777765452 | 0.56° C | 96% | 1003.3 hPa | 0 mm | - | - | - |
| 1777765152 | 0.56° C | 96% | 1003.2 hPa | 0 mm | - | - | - |
| 1777764851 | 0.56° C | 96% | 1003.2 hPa | 0 mm | - | - | - |
| 1777764550 | 1.11° C | 96% | 1003.3 hPa | 0 mm | - | - | - |
| 1777764250 | 1.11° C | 96% | 1003.4 hPa | 0 mm | - | - | - |
| 1777763949 | 1.11° C | 96% | 1002.9 hPa | 0 mm | - | - | - |
| 1777763649 | 0.56° C | 96% | 1003.5 hPa | 0 mm | - | - | - |
| 1777763348 | 1.11° C | 96% | 1003.2 hPa | 0 mm | - | - | - |
| 1777763048 | 1.11° C | 96% | 1003.3 hPa | 0 mm | - | - | - |
| 1777762747 | 1.11° C | 96% | 1003.5 hPa | 0 mm | - | - | - |
| 1777762447 | 1.11° C | 95% | 1003.6 hPa | 0 mm | - | - | - |
| 1777762146 | 1.11° C | 96% | 1003.6 hPa | 0 mm | - | - | - |
| 1777761846 | 1.67° C | 95% | 1003.4 hPa | 0 mm | - | - | - |
| 1777761545 | 1.67° C | 95% | 1003.5 hPa | 0 mm | - | - | - |
| 1777761245 | 1.67° C | 95% | 1003.6 hPa | 0 mm | - | - | - |
| 1777760944 | 1.67° C | 95% | 1003.6 hPa | 0 mm | - | - | - |
| 1777760644 | 1.11° C | 94% | 1003.6 hPa | 0 mm | - | - | - |
| 1777760343 | 1.67° C | 94% | 1003.6 hPa | 0 mm | - | - | - |
* Rain latest hour (hover to see other rain measurements)
** Current wind speed in m/s (hover to see current wind gust speed)